Location: Home
(42.5358°N, 72.7383°W)
Time: 11:49:37
(UTC-05:00)

Tiros 1 - Pass Details

Date: 07 December 2021
Orbit: 629 x 664 km, 48.4° (Epoch: 26 January)

Event Time Altitude Azimuth Distance (km) Brightness Sun altitude
Rises 00:37:47 0° 284° (WNW) 2,962 - -67.0°
Reaches altitude 10° 00:41:08 10° 259° (W) 2,055 - -66.6°
Maximum altitude 00:43:34 14° 228° (SW) 1,801 - -66.4°
Drops below altitude 10° 00:46:00 10° 197° (SSW) 2,058 - -66.1°
Sets 00:49:23 0° 172° (S) 2,971 - -65.7°
